Regional Weather Roundup
Issued by NWS

Home | Current Version | Previous Version | Graphics & Text | Print | Product List | Glossary On
Versions: 1 2 3 4 5 6 7 8 9 10 11 12 13 14 15 16 17 18 19 20 21 22 23 24 25 26 27 28 29 30 31 32 33 34 35 36 37 38 39 40 41 42 43 44 45 46 47 48 49 50
000
ASUS43 KMKX 020611
RWRWI

WISCONSIN REGIONAL WEATHER ROUNDUP
NATIONAL WEATHER SERVICE MILWAUKEE/SULLIVAN WI
100 AM CDT MON MAY 02 2016

NOTE: "FAIR" INDICATES FEW OR NO CLOUDS BELOW 12,000 FEET WITH NO
SIGNIFICANT WEATHER AND/OR OBSTRUCTIONS TO VISIBILITY.

WIZ001-002-006>008-014>016-023>028-020700-
NORTHWEST WISCONSIN

CITY           SKY/WX    TMP DP  RH WIND       PRES   REMARKS
SUPERIOR ARPT  CLEAR     31  30  98 CALM      30.16S
6HR MIN TEMP:  29; 6HR MAX TEMP:  44;

ASHLAND        CLEAR     30  30 100 CALM      30.15S
6HR MIN TEMP:  29; 6HR MAX TEMP:  48;

HAYWARD        CLEAR     33  30  88 CALM      30.13R
6HR MIN TEMP:  33; 6HR MAX TEMP:  54;

SIREN          CLEAR     34  32  90 CALM      30.13S
6HR MIN TEMP:  34; 6HR MAX TEMP:  59;

CUMBERLAND     CLEAR     41  32  70 CALM      30.12S
RICE LAKE      CLEAR     44  34  69 N5        30.13S
6HR MIN TEMP:  44; 6HR MAX TEMP:  60;

CHETEK         MOCLDY    44  36  74 CALM      30.12S
6HR MIN TEMP:  43; 6HR MAX TEMP:  58;

LADYSMITH      CLEAR     40  35  80 CALM      30.13S
6HR MIN TEMP:  39; 6HR MAX TEMP:  60;

EAU CLAIRE     CLEAR     47  35  63 NE3       30.10R
6HR MIN TEMP:  43; 6HR MAX TEMP:  62;

MENOMONIE      CLEAR     45  33  64 N3        30.11R
6HR MIN TEMP:  45; 6HR MAX TEMP:  62;

NEW RICHMOND   CLEAR     42  32  68 CALM      30.12S
6HR MIN TEMP:  41; 6HR MAX TEMP:  60;

OSCEOLA        CLEAR     42  32  66 CALM      30.15S
6HR MIN TEMP:  42; 6HR MAX TEMP:  62;

$$

WIZ003>005-009-010-017-018-020700-
NORTH CENTRAL WISCONSIN

CITY           SKY/WX    TMP DP  RH WIND       PRES   REMARKS
MANITOWISH WTR CLEAR     35  33  92 CALM      30.12S
6HR MIN TEMP:  35; 6HR MAX TEMP:  55;

ARBOR VITAE    CLEAR     42  32  69 CALM      30.11S
6HR MIN TEMP:  42; 6HR MAX TEMP:  57;

WOODRUFF       CLEAR     42  32  69 CALM      30.11S
6HR MIN TEMP:  42; 6HR MAX TEMP:  57;

RHINELANDER    CLEAR     39  30  70 CALM      30.12R
6HR MIN TEMP:  39; 6HR MAX TEMP:  57;

EAGLE RIVER    CLEAR     34  32  91 CALM      30.12S
LAND O LAKES   CLEAR     31  30  94 CALM      30.13S
6HR MIN TEMP:  31; 6HR MAX TEMP:  56;

PHILLIPS       CLEAR     37  33  83 CALM      30.11S
6HR MIN TEMP:  37; 6HR MAX TEMP:  57;

TOMAHAWK       CLEAR     33  31  90 CALM      30.12S
6HR MIN TEMP:  33; 6HR MAX TEMP:  57;

MEDFORD        CLEAR     42  34  73 CALM      30.11R
6HR MIN TEMP:  42; 6HR MAX TEMP:  57;

MERRILL        CLEAR     38  33  82 CALM      30.12R
$$

WIZ029-030-035-036-043>047-020700-
CENTRAL WISCONSIN

CITY           SKY/WX    TMP DP  RH WIND       PRES   REMARKS
WAUSAU         CLEAR     44  35  70 N5        30.10R
6HR MIN TEMP:  44; 6HR MAX TEMP:  59;

MOSINEE        CLEAR     41  32  70 NW3       30.12R
MARSHFIELD     CLEAR     43  33  68 CALM      30.11R
6HR MIN TEMP:  43; 6HR MAX TEMP:  58;

STEVENS POINT  CLEAR     36  33  87 CALM      30.11S
6HR MIN TEMP:  35; 6HR MAX TEMP:  54;

WAUPACA        CLEAR     40  35  84 NW6       30.10R
6HR MIN TEMP:  40; 6HR MAX TEMP:  56;

WAUTOMA        CLEAR     42  37  82 N6        30.10R
6HR MIN TEMP:  38; 6HR MAX TEMP:  55;

WISC RAPIDS    CLEAR     38  33  82 CALM      30.11S
6HR MIN TEMP:  37; 6HR MAX TEMP:  56;

CAMP DOUGLAS     N/A     34  34 100 SW2       30.10R
6HR MIN TEMP:  34; 6HR MAX TEMP:  56;

$$

WIZ011>013-019>022-031-037>040-048>050-020700-
NORTHEAST WISCONSIN

CITY           SKY/WX    TMP DP  RH WIND       PRES   REMARKS
ANTIGO         CLEAR     37  33  87 CALM      30.11R
6HR MIN TEMP:  36; 6HR MAX TEMP:  54;

SHAWANO        CLEAR     44  38  79 CALM      30.11R
6HR MIN TEMP:  41; 6HR MAX TEMP:  57;

OCONTO         CLEAR     37  37 100 N5        30.10S WCI  34
6HR MIN TEMP:  35; 6HR MAX TEMP:  53;

STURGEON BAY   CLEAR     43  32  65 N7        30.11S
6HR MIN TEMP:  43; 6HR MAX TEMP:  52;

GREEN BAY      CLEAR     42  37  82 NE7       30.09S
6HR MIN TEMP:  41; 6HR MAX TEMP:  53;

MANITOWOC      PTCLDY    43  36  76 MISG      30.09R
6HR MIN TEMP:  43; 6HR MAX TEMP:  48;

APPLETON       CLEAR     41  34  75 N8        30.07R
CLINTONVILLE   CLEAR     39  34  81 CALM      30.10R
OSHKOSH        MOCLDY    47  39  74 NE6       30.08R
6HR MIN TEMP:  47; 6HR MAX TEMP:  51;

$$

WIZ032>034-041-042-053>061-020700-
SOUTHWEST WISCONSIN

CITY           SKY/WX    TMP DP  RH WIND       PRES   REMARKS
LA CROSSE      CLOUDY    44  41  89 CALM      30.11R
6HR MIN TEMP:  42; 6HR MAX TEMP:  58;

SPARTA         CLEAR     33  33  97 CALM      30.12R
6HR MIN TEMP:  33; 6HR MAX TEMP:  58;

VIROQUA        PTCLDY    41  41 100 NE6       30.10R
6HR MIN TEMP:  41; 6HR MAX TEMP:  53;

BOSCOBEL       FOG       38  38 100 CALM      30.10R VSB 1/4
6HR MIN TEMP:  38; 6HR MAX TEMP:  51; 6HR PCP:  0.07;

PRAIRIE DU CHI FOG       44  42  95 CALM      30.12R VSB 1/2
6HR MIN TEMP:  42; 6HR MAX TEMP:  49; 6HR PCP:  0.06;

PLATTEVILLE    MOCLDY    46  43  90 N8        30.08R
6HR MIN TEMP:  46; 6HR MAX TEMP:  49;

$$

WIZ056-057-062-063-064-067-068-020700-
SOUTH CENTRAL WISCONSIN

CITY           SKY/WX    TMP DP  RH WIND       PRES   REMARKS
REEDSBURG      CLEAR     40  38  91 CALM      30.09S
6HR MIN TEMP:  40; 6HR MAX TEMP:  53;

BARABOO/DELLS  CLEAR     43  38  83 CALM      30.09R
6HR MIN TEMP:  43; 6HR MAX TEMP:  53;

LONE ROCK      CLEAR     39  38  96 W6        30.10R WCI  35
6HR MIN TEMP:  38; 6HR MAX TEMP:  51; 6HR PCP:  0.05;

MINERAL POINT  CLOUDY    46  43  87 N3        30.08R
MADISON        CLOUDY    48  42  80 NE7       30.07R
6HR MIN TEMP:  48; 6HR MAX TEMP:  53;

MIDDLETON      CLOUDY    49  43  80 NE7       30.08S
6HR MIN TEMP:  48; 6HR MAX TEMP:  54;

WATERTOWN      CLOUDY    47  44  88 N6        30.06S
6HR MIN TEMP:  46; 6HR MAX TEMP:  50;

MONROE         CLOUDY    46  43  87 NE10      30.06R
JANESVILLE     CLOUDY    46  46 100 NE9       30.05S FOG
$$

WIZ051-052-058>065-066-070>072-020700-
SOUTHEAST WISCONSIN

CITY           SKY/WX    TMP DP  RH WIND       PRES   REMARKS
MILWAUKEE      CLOUDY    45  41  86 NE9       30.06R
6HR MIN TEMP:  43; 6HR MAX TEMP:  45; 6HR PCP:  0.03;

WAUKESHA       CLOUDY    43  43 100 NE3       30.07R
MILWAUKEE/TIMM CLOUDY    45  41  87 CALM      30.07R
RACINE         CLOUDY    44  41  89 N8        30.07R
6HR MIN TEMP:  43; 6HR MAX TEMP:  46; 6HR PCP:  0.02;

BURLINGTON     CLOUDY    45  43  95 NE3       30.06R
6HR MIN TEMP:  44; 6HR MAX TEMP:  47;

KENOSHA        CLOUDY    45  42  89 NE6       30.05R
6HR MIN TEMP:  45; 6HR MAX TEMP:  46; 6HR PCP:  0.15;

FOND DU LAC    PTCLDY    45  38  76 NE3       30.08R
6HR MIN TEMP:  45; 6HR MAX TEMP:  52;

SHEBOYGAN      CLOUDY    45  36  70 NE6       30.07R
6HR MIN TEMP:  42; 6HR MAX TEMP:  48;

WEST BEND      CLOUDY    45  37  76 CALM      30.07R
JUNEAU         CLOUDY    46  40  78 N3        30.08S
6HR MIN TEMP:  46; 6HR MAX TEMP:  50;

$$

LSZ147-162-020700-
LAKE SUPERIOR

STATION/POSITION TIME  TEMP    WIND        PRES    WAVE
                       AIR SEA DIR/SP/G            HT/PER
                 (UTC) (F)     (DEG/KT/KT) (MB)    (FT/S)
W MID LAKE BUOY  0550   37 37  330/  4/  6 1021.7F   1/ 5
DEVILS ISLAND    0600   39      10/  7/  8 1021.8R
SAXON HARBOR     0500   31     200/  3/  4 1020.3F
$$

LMZ867-665-643>646-020700-
LAKE MICHIGAN

STATION/POSITION TIME  TEMP    WIND        PRES    WAVE
                       AIR SEA DIR/SP/G            HT/PER
                 (UTC) (F)     (DEG/KT/KT) (MB)    (FT/S)
CHAMBERS ISLAND  0500   43     340/C1F1C2F2C3F3C4F4C5F5C6F6C7F7C8M1C9M2Ca!


USA.gov is the U.S. government's official web portal to all federal, state and local government web resources and services.